Regional Weather Roundup
Issued by NWS State College, PA

Home | Current Version | Previous Version | Graphics & Text | Print | Product List | Glossary Off
Versions: 1 2 3 4 5 6 7 8 9 10 11 12 13 14 15 16 17 18 19 20 21 22 23 24 25 26 27 28 29 30 31 32 33 34 35 36 37 38 39 40 41 42 43 44 45 46 47 48 49 50

000
ASUS41 KCTP 222010
RWRCTP

REGIONAL WEATHER ROUNDUP
NATIONAL WEATHER SERVICE STATE COLLEGE PA
400 PM EDT MON MAY 22 2017

Note: "fair" indicates few or no clouds below 12,000 feet with no
significant weather and/or obstructions to visibility.

* = STATION THAT DOES NOT REPORT PRECIPITATION /E.G. RAIN...SNOW...ETC/
    THUNDER OR FOG.

PAZ002>004-007>009-013>016-020>023-029>032-222100-
WESTERN PENNSYLVANIA

CITY           SKY/WX    TMP DP  RH WIND       PRES   REMARKS
ERIE           PTSUNNY   58  45  62 W9        30.02F
MEADVILLE      CLOUDY    60  46  59 SW8G20    30.02F
FRANKLIN*      CLOUDY    61  43  51 W13G21    30.03S
NEW CASTLE     FAIR      62  45  53 W12       30.04S
BEAVER COUNTY  MOSUNNY   66  46  48 W10       30.04S
BUTLER*        CLOUDY    64  46  52 W10G20    30.03S
PITTSBURGH INT CLOUDY    66  48  52 W13       30.03R
PITTSBURGH     CLOUDY    65  45  48 W14       30.02S
INDIANA*       NOT AVBL
LATROBE        PTSUNNY   66  50  55 W12       30.02S
WASHINGTON CO* PTSUNNY   64  46  52 W8G16     30.07R
$$

PAZ004>006-010>012-017>019-024>028-033>037-041-042-045-046-049>053-222100-
CENTRAL PENNSYLVANIA

CITY           SKY/WX    TMP DP  RH WIND       PRES   REMARKS
BRADFORD       CLOUDY    64  49  57 W10G22    29.97R
DUBOIS         PTSUNNY   63  47  55 SW16      29.98R
CLEARFIELD     MOSUNNY   69  52  54 SW16G23   29.96S
JOHNSTOWN      MOSUNNY   66  50  56 W17G25    30.00S
ALTOONA        CLOUDY    76  49  38 W12       29.96F
STATE COLLEGE  PTSUNNY   72  55  56 W12G23    29.94F
WILLIAMSPORT   CLOUDY    65  58  78 SE7       29.93F
SELINSGROVE    CLOUDY    64  58  80 S7        29.96F
FT INDIANTOWN  CLOUDY    59  59 100 CALM      29.98F
CAPITAL CITY   CLOUDY    63  58  83 SE6       29.97F
HARRISBURG     CLOUDY    63  60  90 S3        29.96F
YORK           CLOUDY    65  61  87 CALM      29.96F
$$

PAZ038>040-043-044-047-048-054-055-060>062-067>071-222100-
EASTERN PENNSYLVANIA

CITY           SKY/WX    TMP DP  RH WIND       PRES   REMARKS
SCRANTON       CLOUDY    62  55  77 SW7       29.97F
MOUNT POCONO   CLOUDY    53  53 100 CALM      29.99F FOG
ALLENTOWN      LGT RAIN  61  55  81 CALM      29.99F
QUAKERTOWN*    CLOUDY    61  59  94 CALM      29.99F
READING        CLOUDY    61  59  93 CALM      29.98F
LANCASTER      CLOUDY    63  60  90 CALM      29.97F
COATESVILLE    CLOUDY    63  61  94 CALM      29.99F
POTTSTOWN      CLOUDY    61  59  93 CALM      30.00F
BLUE BELL      CLOUDY    61  61 100 SE3       29.99F
DOYLESTOWN     LGT RAIN  60  60 100 CALM      29.98F
WILLOW GROVE   NOT AVBL
NORTH PHILA    CLOUDY    63  61  93 E6        29.98F
PHILADELPHIA   CLOUDY    64  61  90 VRB3      29.97F
$$




USA.gov is the U.S. government's official web portal to all federal, state and local government web resources and services.